KINEIS-4C

Last updated on Wed Oct 22 2025 00:02:42 GMT+0000 (Coordinated Universal Time)

1 63301U 25056B 25294.58532583 .00004237 00000+0 67489-3 0 9994 2 63301 97.9976 58.2449 0001965 60.9436 299.1968 14.72500967 32025
UTC large
Height (km)
Speed (km/s)
/
Latitude / Longitude
Inclination (degrees)
Orbital Period (minutes)
Azimuth
Elevation
Range (km)
Doppler Factor

Next 0 passes for location: London (51.5072 / 0.1276)

Sorry there are no passes over London.